RH
96 85 82 77 69 61 70 78 81 84 83 79 80 77 89 89 80 71 70 80 80 84 84 82 84 92 85
99 92 84 79 74 76 76 80 77 78 78 76 80 81 83 90 89 86 87 78 74 80 83 84 92 94 88
99 99 90 89 82 76 72 81 87 90 86 83 87 93 92 93 98 98 96 100 100 100 91 94 100 98 99
99 99 95 92 93 90 88 88 85 80 88 96 100 99 100 100 99 99 99 99 99 100 100 100 99 100 100
92 92 95 93 90 80 86 90 84 90 89 81 100 100 96 88 97 88 89 93 99 98 100 100 99 100 100
94 90 88 90 84 91 90 99 99 86 88 97 85 88 92 98 98 94 90 95 100 98 100 100 100 100 100
93 91 93 91 94 96 94 95 92 89 87 99 98 100 100 98 100 99 99 100 100 100 100 100 100 100 92
94 88 77 86 93 99 93 99 91 100 100 99 100 100 100 100 98 100 100 100 100 100 100 100 96 86 77
82 86 95 94 97 100 100 100 100 100 100 100 99 99 100 98 100 99 100 100 100 99 94 87 78 71 68
99 100 99 99 100 100 100 100 100 100 100 100 100 98 100 98 100 100 100 98 97 95 91 85 83 81 86
100 100 100 100 100 100 100 100 100 99 99 100 100 99 100 99 100 100 99 93 91 92 93 92 88 84 82
100 99 99 97 97 99 99 98 98 96 97 98 100 100 100 89 96 98 90 86 85 83 77 72 68 68 68
90 86 82 71 56 70 75 73 75 61 51 72 68 59 62 59 65 80 88 68 52 46 41 43 46 48 49
29 32 33 32 29 26 23 24 24 26 29 27 27 28 22 20 22 25 27 32 36 36 35 35 40 41 45
17 17 18 17 14 13 12 12 14 16 17 18 18 18 17 19 20 20 24 28 26 26 29 28 30 32 38
14 15 14 13 12 12 12 13 13 14 16 16 15 14 16 26 27 40 52 58 65 86 94 72 46 50 51
16 15 14 14 15 14 13 12 13 14 16 17 18 20 27 34 53 63 64 65 68 46 42 50 66 42 71
Wind_Speed
38 37 38 37 36 35 30 27 30 33 34 31 33 31 34 38 39 37 38 41 43 43 41 39 38 36 29
38 39 40 40 35 34 36 35 38 37 34 36 37 36 34 34 37 39 40 40 39 38 39 39 41 39 36
39 36 38 39 37 35 33 31 32 36 37 36 38 37 36 35 36 38 40 39 42 43 45 46 42 40 36
38 33 34 32 30 31 32 32 31 29 29 30 38 37 39 37 39 39 38 39 42 44 41 43 43 34 34
31 29 21 25 26 26 30 34 33 26 28 33 29 30 34 36 37 39 41 40 37 35 40 36 36 36 27
27 24 24 25 25 26 26 27 28 27 28 33 31 33 33 35 37 37 35 33 41 33 44 43 36 26 25
26 27 28 27 24 24 25 25 28 32 33 31 31 33 32 31 30 27 21 23 26 29 27 24 25 23 20
27 28 32 34 30 29 26 25 32 32 32 29 26 24 24 21 20 18 19 21 22 21 20 19 16 15 15
34 37 34 25 23 30 33 30 29 25 21 20 18 18 15 13 12 12 10 9 11 13 12 12 13 15 17
14 18 20 19 16 14 22 24 26 14 15 14 19 18 7 12 10 10 7 6 8 11 13 15 17 18 19
11 13 14 14 13 9 7 8 11 8 14 13 20 16 9 12 11 9 9 8 9 8 8 9 11 13 15
6 6 8 8 11 10 10 8 6 6 10 8 12 13 9 9 9 10 11 11 11 12 12 14 15 17 18
4 3 3 4 3 4 4 3 2 2 4 8 8 10 11 10 10 10 11 12 13 14 14 15 16 16 16
5 5 6 6 5 5 4 5 5 6 4 4 4 5 6 6 7 8 8 6 7 8 10 13 15 17 17
5 5 5 5 5 5 4 3 3 3 1 1 2 2 3 4 5 7 8 10 10 11 13 15 16 16 17
3 4 4 3 3 3 2 2 2 2 0 2 3 4 4 3 4 5 6 8 8 10 11 16 18 17 16
4 4 3 2 2 1 1 1 0 1 2 3 4 4 4 3 7 8 9 10 13 17 17 16 19 21 19
Wind_Direction
256 254 252 257 255 260 251 260 254 252 245 249 253 262 258 251 251 251 250 250 249 249 248 249 247 246 258
257 254 251 251 255 251 256 261 256 250 254 257 257 261 261 257 251 253 256 257 253 250 251 249 247 247 266
258 254 254 252 252 253 257 256 259 264 261 256 255 261 254 258 257 256 259 258 259 252 250 246 242 251 250
249 255 252 244 246 251 255 255 257 260 261 261 258 255 251 259 254 258 256 261 259 257 240 243 244 242 251
267 273 268 261 250 257 257 258 260 262 258 266 266 268 262 260 258 260 262 259 255 249 226 237 247 244 238
265 258 264 266 274 269 266 255 253 260 268 265 271 270 269 266 266 263 261 259 251 241 236 233 226 232 238
261 253 262 269 271 269 260 261 269 270 268 265 272 267 262 263 262 258 247 239 225 209 205 217 227 229 233
257 260 262 274 267 261 265 263 273 263 258 251 251 241 234 237 229 219 210 208 209 211 215 220 222 223 232
261 265 263 265 269 259 261 243 251 242 230 237 224 213 200 201 203 197 196 188 203 210 213 219 222 231 238
261 251 251 260 253 248 242 244 234 202 199 195 190 185 173 175 177 187 188 205 218 218 218 223 231 237 244
132 125 123 126 126 131 153 179 184 173 163 167 176 180 169 171 174 187 198 198 207 211 212 223 232 242 249
148 134 117 110 125 134 139 150 153 144 154 172 184 201 210 183 179 196 203 214 223 236 241 246 248 251 255
193 170 138 130 125 134 140 137 181 167 185 194 201 205 207 198 202 208 219 240 246 248 250 250 255 255 258
144 142 137 131 144 134 133 140 150 148 166 191 189 208 221 227 238 248 254 243 249 262 264 263 263 268 268
141 142 152 148 144 142 142 142 153 129 151 216 234 250 261 263 271 265 267 274 275 276 272 271 271 273 272
169 165 163 144 123 123 107 106 99 111 266 302 299 291 276 270 269 262 276 290 295 292 298 301 298 294 294
162 157 144 138 141 161 190 226 233 312 321 307 304 304 302 256 262 281 290 302 294 293 293 292 291 295 296